Вернуться в каталог

ATLAS 5 CENTAUR DEB

АктивенHEO
NORAD 46637·DEBRIS·🇺🇸 United States

Запущен Sep 17, 2014 с Cape Canaveral Space Force Station

Loading…

Ближайшие Пролёты (ближайшие 24 часа)

TLE

СвежийSource: Space-Track

Эпоха: Sep 13, 2026, 07:36 UTC

1 46637U 14055CM  26256.31680778 -.00000324  00000-0  00000-0 0  9992
2 46637  21.3704  76.4356 5155313 286.5599  24.5362  1.94661244 42198

Отслеживайте ATLAS 5 CENTAUR DEB в реальном времени с AllMySat

Download on the App Store